Location: Aragüita
(10.0436°N, 67.8028°W)
Time: 04:55:07
(UTC+00:00)

SL-08 RB Rocket - Pass Details

Date: 14 April 2024
Orbit: 640 x 676 km, 97.8° (Epoch: 21 May)

Event Time Altitude Azimuth Distance (km) Brightness Sun altitude
Rises 09:32:00 0° 11° (N) 3,011 7.4 -12.7°
Reaches altitude 10° 09:34:14 10° 11° (N) 2,094 6.6 -12.1°
Maximum altitude 09:38:49 89° 294° (WNW) 670 3.7 -11.0°
Drops below altitude 10° 09:43:22 10° 192° (SSW) 2,074 6.0 -9.9°
Sets 09:45:34 0° 192° (SSW) 2,980 6.8 -9.4°
